{"data":{"norad_id":68433,"epoch":"2026-05-25T02:38:38.085792Z","epoch_age_seconds":64914,"freshness":"FRESH","line1":"1 68433U 26067T   26145.11016303  .00004650  00000+0  23767-3 0  9990","line2":"2 68433  97.4554 103.8445 0007104 128.7051 231.4818 15.17135921  8438","mean_motion":15.17135921,"eccentricity":0.0007104,"inclination_deg":97.4554,"raan_deg":103.8445,"arg_perigee_deg":128.7051,"mean_anomaly_deg":231.4818,"bstar":0.00023767,"rev_number":843,"period_min":94.915688177157,"perigee_km":509.60516500966,"apogee_km":519.39822606828,"semimajor_km":6892.638695539,"source":"CELESTRAK","updated_at":"2026-05-25T13:38:07.815361Z"}}